Location: Berua Church
(35.0423°N, 88.5987°W)
Time: 11:52:13
(UTC+00:00)

Cosmos 1869 Rocket - Pass Details

Date: 08 December 2019
Orbit: 606 x 632 km, 82.5° (Epoch: 19 January)

Event Time Altitude Azimuth Distance (km) Brightness Sun altitude
Rises 12:02:43 0° 208° (SSW) 2,847 6.9 -9.6°
Reaches altitude 10° 12:05:07 10° 219° (SW) 1,947 5.9 -9.2°
Maximum altitude 12:08:57 31° 282° (WNW) 1,067 4.2 -8.4°
Drops below altitude 10° 12:12:49 10° 345° (NNW) 1,963 5.8 -7.7°
Sets 12:15:15 0° 356° (N) 2,873 6.7 -7.2°
